| time (UTC) | temp F | wind direction | speed MPH | gust MPH | rain 1hr in | rain 24hr in | rain mn in | humidity % | barometer mb |
| 20260507122330 | 53 | 45 | 0.0 | 4.0 | 0.00 | 0.00 | 0.00 | 76 | 1022.6 |
| 20260507121917 | 53 | 39 | 0.0 | 4.0 | 0.00 | 0.00 | 0.00 | 77 | 1022.5 |
| 20260507121353 | 53 | 41 | 2.0 | 3.0 | 0.00 | 0.00 | 0.00 | 76 | 1022.4 |
| 20260507120849 | 53 | 86 | 1.0 | 3.0 | 0.00 | 0.00 | 0.00 | 77 | 1022.5 |
| 20260507120342 | 53 | 11 | 1.0 | 3.0 | 0.00 | 0.00 | 0.00 | 77 | 1022.6 |
| 20260507115838 | 53 | 68 | 1.0 | 3.0 | 0.00 | 0.00 | 0.00 | 77 | 1022.6 |
| 20260507115358 | 53 | 61 | 0.0 | 1.0 | 0.00 | 0.00 | 0.00 | 78 | 1022.6 |
| 20260507114835 | 53 | 259 | 0.0 | 0.0 | 0.00 | 0.00 | 0.00 | 78 | 1022.7 |
| 20260507114348 | 53 | 259 | 0.0 | 0.0 | 0.00 | 0.00 | 0.00 | 78 | 1022.6 |
| 20260507113844 | 53 | 259 | 0.0 | 0.0 | 0.00 | 0.00 | 0.00 | 78 | 1022.6 |
| 20260507113341 | 53 | 265 | 0.0 | 1.0 | 0.00 | 0.00 | 0.00 | 78 | 1022.6 |
| 20260507112839 | 53 | 264 | 0.0 | 1.0 | 0.00 | 0.00 | 0.00 | 78 | 1022.7 |
| 20260507112358 | 53 | 271 | 0.0 | 1.0 | 0.00 | 0.00 | 0.00 | 78 | 1022.7 |
| 20260507111836 | 53 | 263 | 0.0 | 1.0 | 0.00 | 0.00 | 0.00 | 78 | 1022.7 |
| 20260507111330 | 53 | 271 | 0.0 | 1.0 | 0.00 | 0.00 | 0.00 | 77 | 1022.7 |
| 20260507110857 | 53 | 272 | 0.0 | 1.0 | 0.00 | 0.00 | 0.00 | 77 | 1022.8 |
| 20260507110354 | 53 | 276 | 0.0 | 2.0 | 0.00 | 0.00 | 0.00 | 77 | 1022.7 |
| 20260507105850 | 53 | 25 | 0.0 | 2.0 | 0.00 | 0.00 | 0.00 | 77 | 1022.8 |
| 20260507105342 | 53 | 250 | 0.0 | 5.0 | 0.00 | 0.00 | 0.00 | 77 | 1022.8 |
| 20260507104839 | 54 | 270 | 0.0 | 5.0 | 0.00 | 0.00 | 0.00 | 77 | 1022.8 |
| 20260507104337 | 54 | 270 | 1.0 | 5.0 | 0.00 | 0.00 | 0.00 | 77 | 1022.9 |
| 20260507103857 | 54 | 94 | 1.0 | 2.0 | 0.00 | 0.00 | 0.00 | 77 | 1022.9 |
| 20260507103352 | 54 | 271 | 0.0 | 3.0 | 0.00 | 0.00 | 0.00 | 78 | 1022.9 |
| 20260507102849 | 54 | 51 | 0.0 | 4.0 | 0.00 | 0.00 | 0.00 | 78 | 1022.9 |
| 20260507102407 | 54 | 92 | 0.0 | 4.0 | 0.00 | 0.00 | 0.00 | 78 | 1022.9 |
| 20260507101905 | 54 | 353 | 0.0 | 3.0 | 0.00 | 0.00 | 0.00 | 78 | 1022.9 |
| 20260507101342 | 54 | 43 | 0.0 | 3.0 | 0.00 | 0.00 | 0.00 | 77 | 1022.9 |
| 20260507100838 | 54 | 68 | 0.0 | 4.0 | 0.00 | 0.00 | 0.00 | 77 | 1023.0 |
| 20260507100354 | 54 | 297 | 0.0 | 4.0 | 0.00 | 0.00 | 0.00 | 77 | 1023.0 |
| 20260507095834 | 54 | 254 | 0.0 | 1.0 | 0.00 | 0.00 | 0.00 | 78 | 1023.1 |
| 20260507095330 | 54 | 271 | 0.0 | 2.0 | 0.00 | 0.00 | 0.00 | 78 | 1023.0 |
| 20260507094909 | 54 | 279 | 0.0 | 2.0 | 0.00 | 0.00 | 0.00 | 78 | 1023.1 |
| 20260507094352 | 54 | 278 | 0.0 | 2.0 | 0.00 | 0.00 | 0.00 | 77 | 1023.1 |
| 20260507093849 | 54 | 267 | 1.0 | 1.0 | 0.00 | 0.00 | 0.00 | 77 | 1023.3 |
| 20260507093348 | 54 | 42 | 0.0 | 1.0 | 0.00 | 0.00 | 0.00 | 77 | 1023.2 |
| 20260507092843 | 54 | 281 | 0.0 | 2.0 | 0.00 | 0.00 | 0.00 | 77 | 1023.3 |
| 20260507092340 | 55 | 276 | 0.0 | 2.0 | 0.00 | 0.00 | 0.00 | 77 | 1023.3 |
| 20260507091903 | 55 | 333 | 0.0 | 3.0 | 0.00 | 0.00 | 0.00 | 77 | 1023.4 |
| 20260507091339 | 55 | 265 | 0.0 | 3.0 | 0.00 | 0.00 | 0.00 | 78 | 1023.4 |
| 20260507090835 | 55 | 262 | 1.0 | 3.0 | 0.00 | 0.00 | 0.00 | 78 | 1023.5 |
| 20260507090354 | 55 | 276 | 0.0 | 2.0 | 0.00 | 0.00 | 0.00 | 78 | 1023.4 |
| 20260507085851 | 55 | 46 | 0.0 | 2.0 | 0.00 | 0.00 | 0.00 | 78 | 1023.4 |
| 20260507085348 | 55 | 262 | 0.0 | 1.0 | 0.00 | 0.00 | 0.00 | 79 | 1023.4 |
| 20260507084905 | 55 | 271 | 0.0 | 2.0 | 0.00 | 0.00 | 0.00 | 78 | 1023.3 |
| 20260507084341 | 55 | 255 | 1.0 | 2.0 | 0.00 | 0.00 | 0.00 | 79 | 1023.4 |
| 20260507083848 | 55 | 257 | 1.0 | 2.0 | 0.00 | 0.00 | 0.00 | 79 | 1023.4 |
| 20260507083402 | 55 | 238 | 0.0 | 1.0 | 0.00 | 0.00 | 0.00 | 79 | 1023.4 |
| 20260507082841 | 55 | 261 | 0.0 | 3.0 | 0.00 | 0.00 | 0.00 | 79 | 1023.5 |
| 20260507082338 | 55 | 265 | 0.0 | 3.0 | 0.00 | 0.00 | 0.00 | 79 | 1023.5 |
| 20260507081836 | 55 | 282 | 0.0 | 1.0 | 0.00 | 0.00 | 0.00 | 79 | 1023.5 |
| 20260507081333 | 55 | 289 | 0.0 | 1.0 | 0.00 | 0.00 | 0.00 | 79 | 1023.5 |
| 20260507080849 | 55 | 17 | 0.0 | 1.0 | 0.00 | 0.00 | 0.00 | 79 | 1023.5 |
| 20260507080348 | 55 | 283 | 0.0 | 0.0 | 0.00 | 0.00 | 0.00 | 79 | 1023.5 |
| 20260507075855 | 55 | 285 | 0.0 | 0.0 | 0.00 | 0.00 | 0.00 | 79 | 1023.5 |
| 20260507075352 | 55 | 286 | 0.0 | 0.0 | 0.00 | 0.00 | 0.00 | 79 | 1023.5 |
| 20260507074849 | 55 | 299 | 0.0 | 0.0 | 0.00 | 0.00 | 0.00 | 79 | 1023.5 |
| 20260507074346 | 55 | 359 | 0.0 | 1.0 | 0.00 | 0.00 | 0.00 | 79 | 1023.5 |
| 20260507073844 | 55 | 358 | 0.0 | 2.0 | 0.00 | 0.00 | 0.00 | 79 | 1023.5 |
| 20260507073338 | 55 | 269 | 0.0 | 2.0 | 0.00 | 0.00 | 0.00 | 79 | 1023.5 |
| 20260507072834 | 55 | 69 | 0.0 | 2.0 | 0.00 | 0.00 | 0.00 | 79 | 1023.5 |
| 20260507072354 | 55 | 98 | 0.0 | 3.0 | 0.00 | 0.00 | 0.00 | 79 | 1023.5 |
| 20260507071853 | 55 | 34 | 1.0 | 3.0 | 0.00 | 0.00 | 0.00 | 79 | 1023.5 |
| 20260507071330 | 55 | 262 | 0.0 | 1.0 | 0.00 | 0.00 | 0.00 | 79 | 1023.4 |
| 20260507070847 | 55 | 262 | 0.0 | 3.0 | 0.00 | 0.00 | 0.00 | 79 | 1023.4 |
| 20260507070344 | 55 | 259 | 1.0 | 3.0 | 0.00 | 0.00 | 0.00 | 79 | 1023.5 |
| 20260507065838 | 55 | 275 | 1.0 | 3.0 | 0.00 | 0.00 | 0.00 | 79 | 1023.5 |
| 20260507065334 | 55 | 268 | 0.0 | 3.0 | 0.00 | 0.00 | 0.00 | 78 | 1023.5 |
| 20260507064847 | 55 | 296 | 0.0 | 3.0 | 0.00 | 0.00 | 0.00 | 78 | 1023.5 |
| 20260507064413 | 55 | 271 | 0.0 | 3.0 | 0.00 | 0.00 | 0.00 | 78 | 1023.5 |
| 20260507063848 | 55 | 17 | 0.0 | 5.0 | 0.00 | 0.00 | 0.00 | 78 | 1023.5 |
| 20260507063345 | 56 | 278 | 1.0 | 5.0 | 0.00 | 0.00 | 0.00 | 78 | 1023.5 |
| 20260507062904 | 56 | 91 | 0.0 | 5.0 | 0.00 | 0.00 | 0.00 | 78 | 1023.6 |
| 20260507062347 | 56 | 266 | 1.0 | 5.0 | 0.00 | 0.00 | 0.00 | 78 | 1023.6 |
| 20260507061842 | 56 | 290 | 1.0 | 4.0 | 0.00 | 0.00 | 0.00 | 78 | 1023.6 |
| 20260507061340 | 56 | 290 | 1.0 | 7.0 | 0.00 | 0.00 | 0.00 | 78 | 1023.6 |
| 20260507060839 | 56 | 91 | 2.0 | 7.0 | 0.00 | 0.00 | 0.00 | 78 | 1023.6 |
| 20260507060358 | 56 | 257 | 0.0 | 4.0 | 0.00 | 0.00 | 0.00 | 78 | 1023.6 |
| 20260507055849 | 56 | 23 | 1.0 | 8.0 | 0.00 | 0.00 | 0.00 | 78 | 1023.6 |
| 20260507055345 | 56 | 253 | 1.0 | 8.0 | 0.00 | 0.00 | 0.00 | 78 | 1023.5 |
| 20260507054842 | 56 | 70 | 2.0 | 4.0 | 0.00 | 0.00 | 0.00 | 77 | 1023.5 |
| 20260507054340 | 57 | 230 | 0.0 | 3.0 | 0.00 | 0.00 | 0.00 | 77 | 1023.4 |
| 20260507053839 | 57 | 42 | 0.0 | 2.0 | 0.00 | 0.00 | 0.00 | 77 | 1023.5 |
| 20260507053336 | 57 | 266 | 0.0 | 2.0 | 0.00 | 0.00 | 0.00 | 77 | 1023.5 |
| 20260507052833 | 57 | 235 | 0.0 | 4.0 | 0.00 | 0.00 | 0.00 | 77 | 1023.4 |
| 20260507052330 | 57 | 38 | 0.0 | 3.0 | 0.00 | 0.00 | 0.00 | 77 | 1023.4 |
| 20260507051850 | 57 | 255 | 1.0 | 3.0 | 0.00 | 0.00 | 0.00 | 77 | 1023.5 |
| 20260507051349 | 57 | 92 | 2.0 | 6.0 | 0.00 | 0.00 | 0.00 | 77 | 1023.4 |
| 20260507050905 | 57 | 282 | 2.0 | 6.0 | 0.00 | 0.00 | 0.00 | 77 | 1023.4 |
| 20260507050343 | 57 | 261 | 1.0 | 8.0 | 0.00 | 0.00 | 0.00 | 77 | 1023.4 |
| 20260507045840 | 57 | 274 | 3.0 | 8.0 | 0.00 | 0.00 | 0.00 | 76 | 1023.3 |
| 20260507045358 | 57 | 271 | 2.0 | 8.0 | 0.00 | 0.00 | 0.00 | 76 | 1023.4 |
| 20260507044836 | 57 | 18 | 1.0 | 4.0 | 0.00 | 0.00 | 0.00 | 76 | 1023.5 |
| 20260507044332 | 58 | 143 | 1.0 | 7.0 | 0.00 | 0.00 | 0.00 | 76 | 1023.4 |
| 20260507043830 | 58 | 314 | 1.0 | 7.0 | 0.00 | 0.00 | 0.00 | 76 | 1023.3 |
| 20260507043345 | 58 | 248 | 3.0 | 7.0 | 0.00 | 0.00 | 0.00 | 76 | 1023.3 |
| 20260507042850 | 58 | 266 | 2.0 | 9.0 | 0.00 | 0.00 | 0.00 | 76 | 1023.1 |
| 20260507042347 | 58 | 198 | 1.0 | 9.0 | 0.00 | 0.00 | 0.00 | 76 | 1023.1 |
| 20260507041845 | 58 | 151 | 2.0 | 9.0 | 0.00 | 0.00 | 0.00 | 75 | 1023.1 |
| 20260507041333 | 59 | 248 | 1.0 | 10.0 | 0.00 | 0.00 | 0.00 | 75 | 1023.1 |
| 20260507040848 | 59 | 325 | 3.0 | 10.0 | 0.00 | 0.00 | 0.00 | 75 | 1023.0 |
| 20260507040345 | 59 | 7 | 1.0 | 4.0 | 0.00 | 0.00 | 0.00 | 76 | 1022.9 |
| 20260507035843 | 59 | 60 | 1.0 | 7.0 | 0.00 | 0.00 | 0.00 | 76 | 1022.8 |
| 20260507035341 | 59 | 281 | 2.0 | 7.0 | 0.00 | 0.00 | 0.00 | 76 | 1022.7 |
| 20260507034907 | 59 | 258 | 1.0 | 7.0 | 0.00 | 0.00 | 0.00 | 76 | 1022.6 |
| 20260507034404 | 59 | 313 | 1.0 | 5.0 | 0.00 | 0.00 | 0.00 | 76 | 1022.5 |
| 20260507033907 | 59 | 241 | 1.0 | 4.0 | 0.00 | 0.00 | 0.00 | 76 | 1022.5 |
| 20260507033341 | 59 | 31 | 2.0 | 11.0 | 0.00 | 0.00 | 0.00 | 76 | 1022.5 |
| 20260507032838 | 60 | 263 | 1.0 | 11.0 | 0.00 | 0.00 | 0.00 | 76 | 1022.4 |
| 20260507032357 | 60 | 58 | 2.0 | 6.0 | 0.00 | 0.00 | 0.00 | 76 | 1022.4 |
| 20260507031834 | 60 | 297 | 1.0 | 6.0 | 0.00 | 0.00 | 0.00 | 75 | 1022.2 |
| 20260507031330 | 60 | 266 | 1.0 | 5.0 | 0.00 | 0.00 | 0.00 | 75 | 1022.2 |
| 20260507030847 | 61 | 269 | 0.0 | 5.0 | 0.00 | 0.00 | 0.00 | 75 | 1022.2 |
| 20260507030344 | 61 | 234 | 1.0 | 5.0 | 0.00 | 0.00 | 0.00 | 74 | 1022.1 |
| 20260507025906 | 62 | 264 | 0.0 | 4.0 | 0.00 | 0.00 | 0.00 | 74 | 1022.0 |
| 20260507025337 | 62 | 292 | 0.0 | 6.0 | 0.00 | 0.00 | 0.00 | 74 | 1022.0 |
| 20260507024834 | 62 | 30 | 2.0 | 6.0 | 0.00 | 0.00 | 0.00 | 73 | 1022.0 |
| 20260507024353 | 63 | 263 | 1.0 | 4.0 | 0.00 | 0.00 | 0.00 | 72 | 1021.8 |
| 20260507023851 | 63 | 44 | 1.0 | 4.0 | 0.00 | 0.00 | 0.00 | 72 | 1021.8 |
| 20260507023348 | 63 | 74 | 1.0 | 5.0 | 0.00 | 0.00 | 0.00 | 72 | 1021.8 |
| 20260507022845 | 63 | 151 | 1.0 | 6.0 | 0.00 | 0.00 | 0.00 | 72 | 1021.8 |
| 20260507022342 | 63 | 75 | 0.0 | 10.0 | 0.00 | 0.00 | 0.00 | 72 | 1021.8 |
| 20260507021840 | 63 | 20 | 2.0 | 10.0 | 0.00 | 0.00 | 0.00 | 71 | 1021.7 |
| 20260507021339 | 64 | 231 | 1.0 | 9.0 | 0.00 | 0.00 | 0.00 | 71 | 1021.7 |
| 20260507020834 | 64 | 320 | 1.0 | 9.0 | 0.00 | 0.00 | 0.00 | 71 | 1021.9 |
| 20260507020331 | 64 | 45 | 2.0 | 7.0 | 0.00 | 0.00 | 0.00 | 70 | 1021.8 |
| 20260507015842 | 65 | 74 | 2.0 | 8.0 | 0.00 | 0.00 | 0.00 | 70 | 1021.9 |
| 20260507015338 | 65 | 47 | 2.0 | 8.0 | 0.00 | 0.00 | 0.00 | 70 | 1021.9 |
| 20260507014905 | 65 | 56 | 2.0 | 5.0 | 0.00 | 0.00 | 0.00 | 69 | 1022.0 |
| 20260507014402 | 66 | 267 | 1.0 | 6.0 | 0.00 | 0.00 | 0.00 | 70 | 1021.9 |
| 20260507013908 | 66 | 25 | 2.0 | 8.0 | 0.00 | 0.00 | 0.00 | 69 | 1021.9 |
| 20260507013343 | 66 | 282 | 1.0 | 5.0 | 0.00 | 0.00 | 0.00 | 69 | 1021.9 |
| 20260507012840 | 67 | 269 | 1.0 | 4.0 | 0.00 | 0.00 | 0.00 | 69 | 1021.8 |
| 20260507012339 | 67 | 326 | 1.0 | 4.0 | 0.00 | 0.00 | 0.00 | 68 | 1021.7 |
| 20260507011858 | 67 | 58 | 1.0 | 9.0 | 0.00 | 0.00 | 0.00 | 69 | 1021.8 |
| 20260507011351 | 67 | 22 | 3.0 | 7.0 | 0.00 | 0.00 | 0.00 | 69 | 1021.7 |
| 20260507010830 | 68 | 319 | 2.0 | 8.0 | 0.00 | 0.00 | 0.00 | 68 | 1021.8 |
| 20260507010346 | 68 | 53 | 1.0 | 5.0 | 0.00 | 0.00 | 0.00 | 69 | 1021.8 |
| 20260507005844 | 68 | 259 | 1.0 | 4.0 | 0.00 | 0.00 | 0.00 | 68 | 1021.7 |
| 20260507005410 | 69 | 17 | 2.0 | 4.0 | 0.00 | 0.00 | 0.00 | 67 | 1021.8 |
| 20260507004846 | 69 | 265 | 1.0 | 4.0 | 0.00 | 0.00 | 0.00 | 65 | 1021.6 |
| 20260507004345 | 70 | 28 | 0.0 | 3.0 | 0.00 | 0.00 | 0.00 | 64 | 1021.7 |
| 20260507003901 | 70 | 269 | 0.0 | 3.0 | 0.00 | 0.00 | 0.00 | 64 | 1021.6 |
| 20260507003339 | 70 | 359 | 1.0 | 4.0 | 0.00 | 0.00 | 0.00 | 63 | 1021.7 |
| 20260507002846 | 71 | 5 | 1.0 | 5.0 | 0.00 | 0.00 | 0.00 | 62 | 1021.7 |
| 20260507002344 | 71 | 264 | 0.0 | 5.0 | 0.00 | 0.00 | 0.00 | 62 | 1021.6 |
| 20260507001836 | 71 | 264 | 1.0 | 2.0 | 0.00 | 0.00 | 0.00 | 62 | 1021.6 |
| 20260507001416 | 72 | 303 | 1.0 | 2.0 | 0.00 | 0.00 | 0.00 | 61 | 1021.6 |
| 20260507000833 | 72 | 255 | 0.0 | 3.0 | 0.00 | 0.00 | 0.00 | 61 | 1021.6 |
| 20260507000330 | 72 | 23 | 1.0 | 3.0 | 0.00 | 0.00 | 0.00 | 61 | 1021.6 |
| 20260506235849 | 72 | 276 | 0.0 | 4.0 | 0.00 | 0.00 | 0.00 | 61 | 1021.6 |
| 20260506235346 | 72 | 257 | 0.0 | 5.0 | 0.00 | 0.00 | 0.00 | 61 | 1021.5 |
| 20260506234845 | 72 | 282 | 2.0 | 5.0 | 0.00 | 0.00 | 0.00 | 59 | 1021.5 |
| 20260506234351 | 72 | 276 | 2.0 | 4.0 | 0.00 | 0.00 | 0.00 | 60 | 1021.6 |
| 20260506233848 | 72 | 158 | 1.0 | 4.0 | 0.00 | 0.00 | 0.00 | 61 | 1021.6 |
| 20260506233344 | 71 | 168 | 1.0 | 4.0 | 0.00 | 0.00 | 0.00 | 62 | 1021.6 |
| 20260506232858 | 71 | 100 | 0.0 | 3.0 | 0.00 | 0.00 | 0.00 | 62 | 1021.6 |
| 20260506232357 | 71 | 233 | 1.0 | 3.0 | 0.00 | 0.00 | 0.00 | 61 | 1021.7 |
| 20260506231846 | 71 | 225 | 0.0 | 4.0 | 0.00 | 0.00 | 0.00 | 62 | 1021.6 |
| 20260506231353 | 71 | 245 | 2.0 | 5.0 | 0.00 | 0.00 | 0.00 | 62 | 1021.8 |
| 20260506230849 | 71 | 25 | 1.0 | 7.0 | 0.00 | 0.00 | 0.00 | 62 | 1021.9 |
| 20260506230347 | 71 | 2 | 1.0 | 4.0 | 0.00 | 0.00 | 0.00 | 63 | 1021.9 |
| 20260506225844 | 70 | 269 | 1.0 | 4.0 | 0.00 | 0.00 | 0.00 | 63 | 1021.9 |
| 20260506225342 | 70 | 221 | 1.0 | 2.0 | 0.00 | 0.00 | 0.00 | 64 | 1022.0 |
| 20260506224839 | 70 | 236 | 0.0 | 1.0 | 0.00 | 0.00 | 0.00 | 65 | 1022.0 |
| 20260506224358 | 69 | 307 | 0.0 | 2.0 | 0.00 | 0.00 | 0.00 | 65 | 1022.1 |
| 20260506223849 | 69 | 280 | 0.0 | 3.0 | 0.00 | 0.00 | 0.00 | 65 | 1022.2 |
| 20260506223346 | 69 | 243 | 0.0 | 3.0 | 0.00 | 0.00 | 0.00 | 66 | 1022.2 |
| 20260506222845 | 69 | 261 | 0.0 | 4.0 | 0.00 | 0.00 | 0.00 | 65 | 1022.3 |
| 20260506222343 | 69 | 160 | 1.0 | 4.0 | 0.00 | 0.00 | 0.00 | 67 | 1022.3 |
| 20260506221840 | 69 | 236 | 1.0 | 3.0 | 0.00 | 0.00 | 0.00 | 67 | 1022.4 |
| 20260506221338 | 68 | 282 | 1.0 | 5.0 | 0.00 | 0.00 | 0.00 | 67 | 1022.4 |
| 20260506220849 | 69 | 131 | 3.0 | 5.0 | 0.00 | 0.00 | 0.00 | 66 | 1022.4 |
| 20260506220356 | 68 | 51 | 1.0 | 5.0 | 0.00 | 0.00 | 0.00 | 66 | 1022.4 |
| 20260506215831 | 68 | 110 | 0.0 | 6.0 | 0.00 | 0.00 | 0.00 | 67 | 1022.3 |
| 20260506215348 | 69 | 238 | 3.0 | 6.0 | 0.00 | 0.00 | 0.00 | 67 | 1022.3 |
| 20260506214841 | 69 | 267 | 2.0 | 5.0 | 0.00 | 0.00 | 0.00 | 67 | 1022.3 |
| 20260506214408 | 68 | 162 | 3.0 | 5.0 | 0.00 | 0.00 | 0.00 | 67 | 1022.4 |
| 20260506213843 | 68 | 212 | 2.0 | 5.0 | 0.00 | 0.00 | 0.00 | 68 | 1022.5 |
| 20260506213334 | 68 | 91 | 2.0 | 6.0 | 0.00 | 0.00 | 0.00 | 69 | 1022.4 |
| 20260506212854 | 66 | 120 | 3.0 | 6.0 | 0.00 | 0.00 | 0.00 | 70 | 1022.5 |
| 20260506212330 | 67 | 266 | 1.0 | 4.0 | 0.00 | 0.00 | 0.00 | 69 | 1022.7 |
| 20260506211848 | 66 | 117 | 0.0 | 4.0 | 0.00 | 0.00 | 0.00 | 70 | 1022.7 |
| 20260506211413 | 66 | 288 | 2.0 | 4.0 | 0.00 | 0.00 | 0.00 | 70 | 1022.8 |
| 20260506210849 | 66 | 119 | 1.0 | 4.0 | 0.00 | 0.00 | 0.00 | 72 | 1022.8 |
| 20260506210342 | 66 | 226 | 1.0 | 4.0 | 0.00 | 0.00 | 0.00 | 69 | 1022.8 |
| 20260506205840 | 67 | 267 | 2.0 | 4.0 | 0.00 | 0.00 | 0.00 | 71 | 1022.7 |
| 20260506205334 | 66 | 145 | 0.0 | 4.0 | 0.00 | 0.00 | 0.00 | 71 | 1022.7 |
| 20260506204854 | 66 | 226 | 1.0 | 6.0 | 0.00 | 0.00 | 0.00 | 71 | 1022.7 |
| 20260506204352 | 65 | 245 | 1.0 | 6.0 | 0.00 | 0.00 | 0.00 | 74 | 1022.7 |
| 20260506203847 | 65 | 262 | 1.0 | 4.0 | 0.00 | 0.00 | 0.00 | 73 | 1022.6 |
| 20260506203344 | 66 | 216 | 2.0 | 4.0 | 0.00 | 0.00 | 0.00 | 71 | 1022.6 |
| 20260506202851 | 66 | 252 | 1.0 | 5.0 | 0.00 | 0.00 | 0.00 | 73 | 1022.6 |
| 20260506202349 | 66 | 274 | 2.0 | 5.0 | 0.00 | 0.00 | 0.00 | 72 | 1022.7 |
| 20260506201846 | 66 | 265 | 0.0 | 6.0 | 0.00 | 0.00 | 0.00 | 73 | 1022.7 |
| 20260506201344 | 65 | 263 | 1.0 | 6.0 | 0.00 | 0.00 | 0.00 | 74 | 1022.8 |
| 20260506200839 | 65 | 190 | 1.0 | 3.0 | 0.00 | 0.00 | 0.00 | 73 | 1023.0 |
| 20260506200335 | 65 | 217 | 1.0 | 5.0 | 0.00 | 0.00 | 0.00 | 74 | 1022.9 |
| 20260506195832 | 64 | 250 | 1.0 | 5.0 | 0.00 | 0.00 | 0.00 | 74 | 1022.9 |
| 20260506195355 | 65 | 262 | 1.0 | 3.0 | 0.00 | 0.00 | 0.00 | 72 | 1023.0 |
| 20260506194833 | 65 | 207 | 0.0 | 3.0 | 0.00 | 0.00 | 0.00 | 73 | 1023.0 |
| 20260506194330 | 64 | 221 | 1.0 | 3.0 | 0.00 | 0.00 | 0.00 | 73 | 1023.0 |
| 20260506193914 | 64 | 293 | 1.0 | 3.0 | 0.00 | 0.00 | 0.00 | 73 | 1023.0 |
| 20260506193351 | 64 | 103 | 0.0 | 4.0 | 0.00 | 0.00 | 0.00 | 74 | 1023.0 |
| 20260506192848 | 65 | 252 | 2.0 | 4.0 | 0.00 | 0.00 | 0.00 | 72 | 1023.1 |
| 20260506192405 | 65 | 238 | 1.0 | 4.0 | 0.00 | 0.00 | 0.00 | 73 | 1022.8 |
| 20260506191837 | 66 | 236 | 1.0 | 4.0 | 0.00 | 0.00 | 0.00 | 70 | 1022.9 |
| 20260506191337 | 66 | 65 | 0.0 | 2.0 | 0.00 | 0.00 | 0.00 | 71 | 1022.8 |
| 20260506190833 | 66 | 212 | 0.0 | 2.0 | 0.00 | 0.00 | 0.00 | 73 | 1023.0 |
| 20260506190331 | 64 | 64 | 1.0 | 7.0 | 0.00 | 0.00 | 0.00 | 75 | 1023.0 |
| 20260506185855 | 63 | 295 | 2.0 | 7.0 | 0.00 | 0.00 | 0.00 | 77 | 1022.9 |
| 20260506185351 | 63 | 264 | 5.0 | 7.0 | 0.00 | 0.00 | 0.00 | 76 | 1022.8 |
| 20260506184850 | 63 | 239 | 2.0 | 4.0 | 0.00 | 0.00 | 0.00 | 76 | 1022.8 |
| 20260506184348 | 62 | 258 | 0.0 | 4.0 | 0.00 | 0.00 | 0.00 | 79 | 1022.9 |
| 20260506183845 | 61 | 237 | 2.0 | 4.0 | 0.00 | 0.00 | 0.00 | 78 | 1022.9 |
| 20260506183342 | 62 | 244 | 2.0 | 4.0 | 0.00 | 0.00 | 0.00 | 78 | 1023.0 |
| 20260506182840 | 62 | 219 | 2.0 | 4.0 | 0.00 | 0.00 | 0.00 | 79 | 1022.9 |
| 20260506182404 | 61 | 238 | 1.0 | 2.0 | 0.00 | 0.00 | 0.00 | 79 | 1022.9 |
| 20260506181901 | 61 | 237 | 1.0 | 4.0 | 0.00 | 0.00 | 0.00 | 80 | 1023.0 |
| 20260506181401 | 60 | 245 | 1.0 | 4.0 | 0.00 | 0.00 | 0.00 | 82 | 1023.0 |
| 20260506180858 | 60 | 258 | 2.0 | 4.0 | 0.00 | 0.00 | 0.00 | 81 | 1022.9 |
| 20260506180354 | 60 | 244 | 0.0 | 4.0 | 0.00 | 0.00 | 0.00 | 82 | 1023.0 |
| 20260506175900 | 60 | 257 | 2.0 | 4.0 | 0.00 | 0.00 | 0.00 | 82 | 1023.0 |
| 20260506175354 | 60 | 281 | 2.0 | 3.0 | 0.00 | 0.00 | 0.00 | 82 | 1022.9 |
| 20260506174847 | 60 | 276 | 1.0 | 3.0 | 0.00 | 0.00 | 0.00 | 82 | 1022.9 |
| 20260506174345 | 59 | 269 | 1.0 | 3.0 | 0.00 | 0.00 | 0.00 | 82 | 1022.8 |
| 20260506173843 | 59 | 225 | 0.0 | 2.0 | 0.00 | 0.00 | 0.00 | 83 | 1022.7 |
| 20260506173341 | 59 | 230 | 0.0 | 2.0 | 0.00 | 0.00 | 0.00 | 83 | 1022.7 |
| 20260506172838 | 59 | 290 | 0.0 | 2.0 | 0.00 | 0.00 | 0.00 | 83 | 1022.7 |
| 20260506172358 | 59 | 265 | 0.0 | 1.0 | 0.00 | 0.00 | 0.00 | 84 | 1022.5 |
| 20260506171854 | 59 | 214 | 0.0 | 1.0 | 0.00 | 0.00 | 0.00 | 84 | 1022.7 |
| 20260506171331 | 59 | 276 | 0.0 | 1.0 | 0.00 | 0.00 | 0.00 | 84 | 1022.8 |
| 20260506170829 | 59 | 281 | 1.0 | 2.0 | 0.00 | 0.00 | 0.00 | 83 | 1022.8 |
| 20260506170347 | 59 | 278 | 1.0 | 2.0 | 0.00 | 0.00 | 0.00 | 83 | 1022.8 |
| 20260506165844 | 59 | 268 | 0.0 | 2.0 | 0.00 | 0.00 | 0.00 | 83 | 1022.7 |
| 20260506165339 | 59 | 266 | 0.0 | 3.0 | 0.00 | 0.00 | 0.00 | 83 | 1022.7 |
| 20260506164900 | 59 | 224 | 1.0 | 2.0 | 0.00 | 0.00 | 0.00 | 83 | 1022.6 |
| 20260506164338 | 59 | 231 | 0.0 | 2.0 | 0.00 | 0.00 | 0.00 | 83 | 1022.7 |
| 20260506163857 | 59 | 276 | 1.0 | 2.0 | 0.00 | 0.00 | 0.00 | 82 | 1022.6 |
| 20260506163332 | 59 | 141 | 0.0 | 1.0 | 0.00 | 0.00 | 0.00 | 82 | 1022.5 |
| 20260506162919 | 59 | 143 | 0.0 | 1.0 | 0.00 | 0.00 | 0.00 | 81 | 1022.4 |
| 20260506162353 | 59 | 141 | 0.0 | 2.0 | 0.00 | 0.00 | 0.00 | 82 | 1022.4 |
| 20260506161907 | 59 | 158 | 1.0 | 2.0 | 0.00 | 0.00 | 0.00 | 82 | 1022.4 |
| 20260506161339 | 59 | 269 | 0.0 | 2.0 | 0.00 | 0.00 | 0.00 | 82 | 1022.3 |
| 20260506160835 | 59 | 134 | 0.0 | 2.0 | 0.00 | 0.00 | 0.00 | 82 | 1022.1 |
| 20260506160355 | 59 | 255 | 1.0 | 4.0 | 0.00 | 0.00 | 0.00 | 82 | 1022.3 |
| 20260506155831 | 58 | 116 | 0.0 | 4.0 | 0.00 | 0.00 | 0.00 | 83 | 1021.9 |
| 20260506155348 | 58 | 155 | 1.0 | 4.0 | 0.00 | 0.00 | 0.00 | 83 | 1021.8 |
| 20260506154846 | 57 | 58 | 2.0 | 4.0 | 0.00 | 0.00 | 0.00 | 84 | 1021.8 |
| 20260506154343 | 57 | 98 | 1.0 | 2.0 | 0.00 | 0.00 | 0.00 | 84 | 1022.3 |
| 20260506153910 | 57 | 302 | 1.0 | 2.0 | 0.00 | 0.00 | 0.00 | 84 | 1022.6 |
| 20260506153407 | 57 | 278 | 0.0 | 2.0 | 0.00 | 0.00 | 0.00 | 84 | 1022.6 |
| 20260506152839 | 57 | 266 | 0.0 | 3.0 | 0.00 | 0.00 | 0.00 | 84 | 1022.7 |
| 20260506152406 | 57 | 287 | 0.0 | 3.0 | 0.00 | 0.00 | 0.00 | 84 | 1022.8 |
| 20260506151904 | 58 | 266 | 1.0 | 2.0 | 0.00 | 0.00 | 0.00 | 84 | 1022.7 |
| 20260506151340 | 58 | 264 | 0.0 | 2.0 | 0.00 | 0.00 | 0.00 | 84 | 1022.7 |
| 20260506150902 | 58 | 257 | 0.0 | 2.0 | 0.00 | 0.00 | 0.00 | 84 | 1022.6 |
| 20260506150339 | 58 | 322 | 0.0 | 0.0 | 0.00 | 0.00 | 0.00 | 84 | 1022.6 |
| 20260506145858 | 58 | 263 | 0.0 | 0.0 | 0.00 | 0.00 | 0.00 | 84 | 1022.5 |
| 20260506145333 | 58 | 79 | 0.0 | 0.0 | 0.00 | 0.00 | 0.00 | 84 | 1022.6 |
| 20260506144849 | 58 | 79 | 0.0 | 0.0 | 0.00 | 0.00 | 0.00 | 84 | 1022.6 |
| 20260506144402 | 58 | 79 | 0.0 | 0.0 | 0.00 | 0.00 | 0.00 | 84 | 1022.3 |
| 20260506143847 | 58 | 80 | 0.0 | 0.0 | 0.00 | 0.00 | 0.00 | 85 | 1022.4 |
| 20260506143344 | 57 | 80 | 0.0 | 0.0 | 0.00 | 0.00 | 0.00 | 84 | 1022.0 |
| 20260506142841 | 57 | 79 | 0.0 | 0.0 | 0.00 | 0.00 | 0.00 | 84 | 1021.9 |
| 20260506142345 | 57 | 79 | 0.0 | 0.0 | 0.00 | 0.00 | 0.00 | 84 | 1021.8 |
| 20260506141844 | 57 | 77 | 0.0 | 0.0 | 0.00 | 0.00 | 0.00 | 85 | 1021.8 |
| 20260506141402 | 57 | 77 | 0.0 | 0.0 | 0.00 | 0.00 | 0.00 | 85 | 1021.8 |
| 20260506140901 | 57 | 53 | 0.0 | 0.0 | 0.00 | 0.00 | 0.00 | 85 | 1021.9 |
| 20260506140334 | 57 | 52 | 0.0 | 0.0 | 0.00 | 0.00 | 0.00 | 85 | 1021.9 |
| 20260506135854 | 57 | 68 | 0.0 | 0.0 | 0.00 | 0.00 | 0.00 | 85 | 1021.8 |
| 20260506135330 | 57 | 68 | 0.0 | 0.0 | 0.00 | 0.00 | 0.00 | 85 | 1021.7 |
| 20260506134848 | 57 | 67 | 0.0 | 0.0 | 0.00 | 0.00 | 0.00 | 85 | 1021.8 |
| 20260506134345 | 57 | 68 | 0.0 | 0.0 | 0.00 | 0.00 | 0.00 | 85 | 1021.7 |
| 20260506133841 | 57 | 38 | 0.0 | 0.0 | 0.00 | 0.00 | 0.00 | 85 | 1021.6 |
| 20260506133400 | 57 | 37 | 0.0 | 0.0 | 0.00 | 0.00 | 0.00 | 85 | 1021.6 |
| 20260506132857 | 57 | 37 | 0.0 | 0.0 | 0.00 | 0.00 | 0.00 | 85 | 1021.6 |
| 20260506132354 | 57 | 37 | 0.0 | 0.0 | 0.00 | 0.00 | 0.00 | 85 | 1021.5 |
| 20260506131846 | 57 | 37 | 0.0 | 0.0 | 0.00 | 0.00 | 0.00 | 85 | 1021.4 |
| 20260506131344 | 57 | 37 | 0.0 | 0.0 | 0.00 | 0.00 | 0.00 | 85 | 1021.5 |
| 20260506130841 | 57 | 37 | 0.0 | 0.0 | 0.00 | 0.00 | 0.00 | 85 | 1021.6 |
| 20260506130408 | 57 | 37 | 0.0 | 0.0 | 0.00 | 0.00 | 0.00 | 85 | 1021.5 |
| 20260506125843 | 57 | 37 | 0.0 | 0.0 | 0.00 | 0.00 | 0.00 | 84 | 1021.4 |
| 20260506125401 | 57 | 37 | 0.0 | 0.0 | 0.00 | 0.00 | 0.00 | 84 | 1021.3 |
| 20260506124858 | 57 | 37 | 0.0 | 0.0 | 0.00 | 0.00 | 0.00 | 84 | 1021.3 |
| 20260506124356 | 57 | 36 | 0.0 | 0.0 | 0.00 | 0.00 | 0.00 | 84 | 1021.4 |
| 20260506123848 | 57 | 36 | 0.0 | 0.0 | 0.00 | 0.00 | 0.00 | 84 | 1021.4 |
| 20260506123346 | 57 | 36 | 0.0 | 0.0 | 0.00 | 0.00 | 0.00 | 84 | 1021.4 |
| 20260506122843 | 57 | 37 | 0.0 | 0.0 | 0.00 | 0.00 | 0.00 | 84 | 1021.4 |